Tracking 18840 objects as of 19-November-2017
HD Live streaming from Space Station
objects crossing your sky now

FENGYUN 1C DEB

Track FENGYUN 1C DEB now!
10-day predictions


NORAD ID: 31887
Int'l Code: 1999-025CKN
Perigee: 760.9 km
Apogee: 815.1 km
Inclination: 99.6 °
Period: 100.5 minutes
Semi major axis: 7158 km
RCS: 0.0075 m2 (small)
Launch date: May 10, 1999
Source: People's Republic of China (PRC)
Launch site: Taiyaun Space Center, China (TSC)

Note: This is SATELLITE DEBRIS
aabbcc
Your satellite tracking list
Your tracking list is empty




NASA's NSSDC Master Catalog

Two Line Element Set (TLE):
1 31887U 99025CKN 17322.95996591 +.00000725 +00000-0 +28058-3 0  9990
2 31887 099.5532 005.1518 0037853 220.4283 261.4867 14.33269687542463
Source of the keplerian elements: AFSPC